Satellite: RESURS
Catalog number: 25394
Epoch time: 09203.63931957
Element set: 0279
Inclination: 098.3367 deg
RA of node: 234.1788 deg
Eccentricity: 0.0002287
Arg of perigee: 090.5445 deg
Mean anomaly: 269.5996 deg
Mean motion: 14.24186174 rev/day
Decay rate: -2.2e-07 rev/day^2
Epoch rev: 57344
Checksum: 335
Satellite: FENGYUN1
Catalog number: 25730
Epoch time: 09203.95787514
Element set: 0858
Inclination: 098.7549 deg
RA of node: 173.0471 deg
Eccentricity: 0.0022473
Arg of perigee: 111.0830 deg
Mean anomaly: 249.2744 deg
Mean motion: 14.07925072 rev/day
Decay rate: 7.02e-06 rev/day^2
Epoch rev: 52535
Checksum: 303
Satellite: OKEAN-0
Catalog number: 25860
Epoch time: 09204.49974483
Element set: 738
Inclination: 097.7880 deg
RA of node: 184.2401 deg
Eccentricity: 0.0001913
Arg of perigee: 069.6460 deg
Mean anomaly: 290.4951 deg
Mean motion: 14.73581103 rev/day
Decay rate: 1.3e-07 rev/day^2
Epoch rev: 53849
Checksum: 313
Satellite: NOAA-16
Catalog number: 26536
Epoch time: 09203.92202890
Element set: 0493
Inclination: 099.1753 deg
RA of node: 208.4530 deg
Eccentricity: 0.0010643
Arg of perigee: 175.6952 deg
Mean anomaly: 184.4302 deg
Mean motion: 14.12528271 rev/day
Decay rate: 3.56e-06 rev/day^2
Epoch rev: 45534
Checksum: 296
Satellite: NOAA-17
Catalog number: 27453
Epoch time: 09203.83369595
Element set: 0496
Inclination: 098.4817 deg
RA of node: 261.6716 deg
Eccentricity: 0.0011988
Arg of perigee: 025.5506 deg
Mean anomaly: 334.6262 deg
Mean motion: 14.24078878 rev/day
Decay rate: 2.13e-06 rev/day^2
Epoch rev: 36782
Checksum: 343
Satellite: NOAA-18
Catalog number: 28654
Epoch time: 09203.77948653
Element set: 0985
Inclination: 098.9060 deg
RA of node: 146.7450 deg
Eccentricity: 0.0013219
Arg of perigee: 262.8948 deg
Mean anomaly: 097.0741 deg
Mean motion: 14.11270754 rev/day
Decay rate: -1.44e-06 rev/day^2
Epoch rev: 21497
Checksum: 336
Satellite: NOAA-19
Catalog number: 33591
Epoch time: 09203.83811919
Element set: 0188
Inclination: 098.7458 deg
RA of node: 148.6739 deg
Eccentricity: 0.0014780
Arg of perigee: 138.8927 deg
Mean anomaly: 221.3398 deg
Mean motion: 14.10973161 rev/day
Decay rate: 2.89e-06 rev/day^2
Epoch rev: 02346
Checksum: 344
/EX
SB KEPS @ AMSAT $ORB09204.M
Orbital Elements 09204.MISC
HR AMSAT ORBITAL ELEMENTS FOR MANNED AND MISCELLANEOUS SATELLITES
FROM WA5QGD FORT WORTH,TX July 23, 2009
Send Subscribe/unsubscribe to KEPS at
http://www.amsat.org/mailman/listinfo/keps
BID: ORB09204.M
TO ALL RADIO AMATEURS BT
Satellite: HUBBLE
Catalog number: 20580
Epoch time: 09201.16345431
Element set: 0423
Inclination: 028.4701 deg
RA of node: 247.0752 deg
Eccentricity: 0.0003234
Arg of perigee: 273.0910 deg
Mean anomaly: 086.9308 deg
Mean motion: 15.00816473 rev/day
Decay rate: 2.57e-06 rev/day^2
Epoch rev: 85481
Checksum: 264
Satellite: ISS
Catalog number: 25544
Epoch time: 09203.87036815
Element set: 0267
Inclination: 051.6387 deg
RA of node: 123.6448 deg
Eccentricity: 0.0005973
Arg of perigee: 269.1546 deg
Mean anomaly: 213.8474 deg
Mean motion: 15.73959216 rev/day
Decay rate: 7.315e-05 rev/day^2
Epoch rev: 61157
Checksum: 323
Satellite: CO-58
Catalog number: 28895
Epoch time: 09203.77552737
Element set: 0352
Inclination: 098.0537 deg
RA of node: 093.3886 deg
Eccentricity: 0.0016808
Arg of perigee: 234.1186 deg
Mean anomaly: 125.8486 deg
Mean motion: 14.59782494 rev/day
Decay rate: 3.2e-07 rev/day^2
Epoch rev: 19892
Checksum: 361
Satellite: FALCON
Catalog number: 30776
Epoch time: 09203.49857976
Element set: 618
Inclination: 035.4341 deg
RA of node: 245.1680 deg
Eccentricity: 0.0001395
Arg of perigee: 265.3284 deg
Mean anomaly: 094.7273 deg
Mean motion: 15.03272382 rev/day
Decay rate: 1.42e-06 rev/day^2
Epoch rev: 13041
Checksum: 291
Satellite: MAST
Catalog number: 31126
Epoch time: 09203.62496175
Element set: 0647
Inclination: 097.9871 deg
RA of node: 256.8051 deg
Eccentricity: 0.0094773
Arg of perigee: 169.2933 deg
Mean anomaly: 191.0316 deg
Mean motion: 14.53507525 rev/day
Decay rate: -8.0e-08 rev/day^2
Epoch rev: 12018
Checksum: 305
Satellite: CAPE1
Catalog number: 31130
Epoch time: 09203.62986299
Element set: 0660
Inclination: 097.9871 deg
RA of node: 254.9130 deg
Eccentricity: 0.0102662
Arg of perigee: 174.9825 deg
Mean anomaly: 185.2406 deg
Mean motion: 14.52074736 rev/day
Decay rate: -4.7e-07 rev/day^2
Epoch rev: 11983
Checksum: 313
Satellite: COMPASS
Catalog number: 32787
Epoch time: 09202.94976761
Element set: 0423
Inclination: 097.9404 deg
RA of node: 266.4767 deg
Eccentricity: 0.0014613
Arg of perigee: 280.2415 deg
Mean anomaly: 079.7147 deg
Mean motion: 14.81628752 rev/day
Decay rate: 1.54e-06 rev/day^2
Epoch rev: 06659
Checksum: 330
Satellite: AAUSAT2
Catalog number: 32788
Epoch time: 09203.65756712
Element set: 0414
Inclination: 097.9405 deg
RA of node: 267.2440 deg
Eccentricity: 0.0014446
Arg of perigee: 278.9550 deg
Mean anomaly: 080.9950 deg
Mean motion: 14.81752855 rev/day
Decay rate: 1.5e-07 rev/day^2
Epoch rev: 06670
Checksum: 318
Satellite: DO-64
Catalog number: 32789
Epoch time: 09203.81450432
Element set: 427
Inclination: 097.9452 deg
RA of node: 267.5838 deg
Eccentricity: 0.0014548
Arg of perigee: 277.6014 deg
Mean anomaly: 082.3542 deg
Mean motion: 14.81748752 rev/day
Decay rate: 3.51e-06 rev/day^2
Epoch rev: 6672
Checksum: 328
Satellite: CO-66
Catalog number: 32791
Epoch time: 09202.72646154
Element set: 0413
Inclination: 097.9417 deg
RA of node: 266.2887 deg
Eccentricity: 0.0015063
Arg of perigee: 279.8289 deg
Mean anomaly: 080.1212 deg
Mean motion: 14.81454551 rev/day
Decay rate: -1.12e-06 rev/day^2
Epoch rev: 06652
Checksum: 312
Satellite: RS-30
Catalog number: 32953
Epoch time: 09203.60525940
Element set: 0361
Inclination: 082.4981 deg
RA of node: 234.5866 deg
Eccentricity: 0.0020630
Arg of perigee: 100.6346 deg
Mean anomaly: 259.7059 deg
Mean motion: 12.43002379 rev/day
Decay rate: 1.0e-07 rev/day^2
Epoch rev: 05279
Checksum: 280
Satellite: TACSAT-3
Catalog number: 35001
Epoch time: 09203.96822399
Element set: 0056
Inclination: 040.4568 deg
RA of node: 026.6647 deg
Eccentricity: 0.0023977
Arg of perigee: 064.8230 deg
Mean anomaly: 295.5067 deg
Mean motion: 15.38944692 rev/day
Decay rate: 1.309e-05 rev/day^2
Epoch rev: 00986
Checksum: 324
Satellite: PHARMSAT
Catalog number: 35002
Epoch time: 09203.87127845
Element set: 54
Inclination: 040.4696 deg
RA of node: 026.8621 deg
Eccentricity: 0.0026445
Arg of perigee: 069.0864 deg
Mean anomaly: 291.2782 deg
Mean motion: 15.39710260 rev/day
Decay rate: 1.252e-05 rev/day^2
Epoch rev: 984
Checksum: 287
Satellite: HAWKSAT1
Catalog number: 35003
Epoch time: 09203.92547445
Element set: 0057
Inclination: 040.4711 deg
RA of node: 026.4037 deg
Eccentricity: 0.0027032
Arg of perigee: 071.9101 deg
Mean anomaly: 288.4655 deg
Mean motion: 15.39948051 rev/day
Decay rate: 8.57e-06 rev/day^2
Epoch rev: 00986
Checksum: 285
Satellite: CP6
Catalog number: 35004
Epoch time: 09203.85260605
Element set: 50
Inclination: 040.4623 deg
RA of node: 026.6701 deg
Eccentricity: 0.0027044
Arg of perigee: 071.1399 deg
Mean anomaly: 289.2349 deg
Mean motion: 15.40247322 rev/day
Decay rate: 2.234e-05 rev/day^2
Epoch rev: 984
Checksum: 264
Satellite: AEROCUB3
Catalog number: 35005
Epoch time: 09204.83286483
Element set: 51
Inclination: 040.4741 deg
RA of node: 020.9789 deg
Eccentricity: 0.0026762
Arg of perigee: 076.0195 deg
Mean anomaly: 284.3596 deg
Mean motion: 15.40089232 rev/day
Decay rate: 3.291e-05 rev/day^2
Epoch rev: 999
Checksum: 306
/EX
More information about the Keps
mailing list